Location: Ulm
(48.3980°N, 9.9777°E)
Time: 10:07:52
(UTC+01:00)

ISS - Pass Details

Date: 07 January 2018
Orbit: 402 x 407 km, 51.6° (Epoch: 21 January)

Event Time Altitude Azimuth Distance (km) Brightness Sun altitude
Exits shadow 07:28:36 - 292° (WNW) 1,543 -1.6 -6.9°
Reaches altitude 10° 07:28:47 10° 293° (WNW) 1,470 -1.7 -6.8°
Maximum altitude 07:32:05 76° 18° (NNE) 424 -3.8 -6.4°
Drops below altitude 10° 07:35:23 10° 106° (ESE) 1,468 0.7 -5.9°
Sets 07:37:28 0° 108° (ESE) 2,327 2.3 -5.6°
